TimeEDT,TemperatureF,Dew PointF,Humidity,Sea Level PressureIn,VisibilityMPH,Wind Direction,Wind SpeedMPH,Gust SpeedMPH,PrecipitationIn,Events,Conditions,WindDirDegrees,DateUTC
12:15 AM,53.6,51.8,94,30.06,10.0,Calm,Calm,-,N/A,,Clear,0,2013-09-16 04:15:00
12:35 AM,53.6,50.0,88,30.06,10.0,Calm,Calm,-,N/A,,Clear,0,2013-09-16 04:35:00
12:55 AM,-9999,-9999,N/A,30.04,10.0,Calm,Calm,-,N/A,,Clear,0,2013-09-16 04:55:00
1:15 AM,53.6,50.0,88,30.04,10.0,Calm,Calm,-,N/A,,Clear,0,2013-09-16 05:15:00
1:35 AM,53.6,50.0,88,30.03,10.0,Calm,Calm,-,N/A,,Clear,0,2013-09-16 05:35:00
1:55 AM,-9999,-9999,N/A,30.03,10.0,Calm,Calm,-,N/A,,Clear,0,2013-09-16 05:55:00
2:15 AM,-9999,-9999,N/A,30.04,10.0,Calm,Calm,-,N/A,,Clear,0,2013-09-16 06:15:00
2:35 AM,-9999,-9999,N/A,30.02,10.0,Calm,Calm,-,N/A,,Clear,0,2013-09-16 06:35:00
2:55 AM,53.6,50.0,88,30.03,10.0,Calm,Calm,-,N/A,,Clear,0,2013-09-16 06:55:00
3:15 AM,-9999,-9999,N/A,30.03,10.0,Calm,Calm,-,N/A,,Clear,0,2013-09-16 07:15:00
3:35 AM,53.6,50.0,88,30.04,10.0,Calm,Calm,-,N/A,,Clear,0,2013-09-16 07:35:00
3:55 AM,53.6,50.0,88,30.02,10.0,Calm,Calm,-,N/A,,Clear,0,2013-09-16 07:55:00
4:15 AM,-9999,-9999,N/A,30.01,10.0,NNW,3.5,-,N/A,,Clear,330,2013-09-16 08:15:00
4:35 AM,53.6,50.0,88,30.02,10.0,Calm,Calm,-,N/A,,Clear,0,2013-09-16 08:35:00
4:55 AM,53.6,50.0,88,30.03,10.0,Calm,Calm,-,N/A,,Clear,0,2013-09-16 08:55:00
5:15 AM,53.6,50.0,88,30.04,10.0,Calm,Calm,-,N/A,,Clear,0,2013-09-16 09:15:00
5:35 AM,53.6,50.0,88,30.05,10.0,Calm,Calm,-,N/A,,Scattered Clouds,0,2013-09-16 09:35:00
5:55 AM,53.6,50.0,88,30.05,10.0,Calm,Calm,-,N/A,,Scattered Clouds,0,2013-09-16 09:55:00
6:15 AM,53.6,50.0,88,30.04,10.0,Calm,Calm,-,N/A,,Mostly Cloudy,0,2013-09-16 10:15:00
6:35 AM,53.6,50.0,88,30.03,10.0,Calm,Calm,-,N/A,,Mostly Cloudy,0,2013-09-16 10:35:00
6:55 AM,53.6,50.0,88,30.05,10.0,SSW,6.9,-,N/A,,Mostly Cloudy,200,2013-09-16 10:55:00
7:15 AM,53.6,50.0,88,30.05,10.0,South,4.6,-,N/A,,Overcast,190,2013-09-16 11:15:00
7:35 AM,53.6,50.0,88,30.06,10.0,SSW,3.5,-,N/A,,Overcast,200,2013-09-16 11:35:00
7:55 AM,53.6,50.0,88,30.06,10.0,Calm,Calm,-,0.01,,Overcast,0,2013-09-16 11:55:00
8:15 AM,53.6,50.0,88,30.06,10.0,South,5.8,-,0.01,,Overcast,180,2013-09-16 12:15:00
8:35 AM,53.6,51.8,94,30.05,10.0,SSW,4.6,-,0.01,,Mostly Cloudy,200,2013-09-16 12:35:00
8:55 AM,55.4,51.8,88,30.06,10.0,SW,3.5,-,0.01,,Mostly Cloudy,220,2013-09-16 12:55:00
9:15 AM,55.4,51.8,88,30.05,10.0,Calm,Calm,-,N/A,,Mostly Cloudy,0,2013-09-16 13:15:00
9:35 AM,57.2,51.8,82,30.06,10.0,Calm,Calm,-,N/A,,Mostly Cloudy,0,2013-09-16 13:35:00
9:55 AM,57.2,51.8,82,30.05,10.0,WSW,3.5,-,N/A,,Overcast,250,2013-09-16 13:55:00
10:15 AM,57.2,51.8,82,30.05,10.0,Calm,Calm,-,N/A,,Overcast,0,2013-09-16 14:15:00
10:35 AM,60.8,51.8,72,30.05,10.0,SSW,4.6,-,N/A,,Scattered Clouds,210,2013-09-16 14:35:00
10:55 AM,60.8,48.2,63,30.05,10.0,WNW,4.6,-,N/A,,Mostly Cloudy,300,2013-09-16 14:55:00
11:15 AM,62.6,50.0,63,30.05,10.0,North,13.8,17.3,N/A,,Overcast,350,2013-09-16 15:15:00
11:35 AM,62.6,48.2,59,30.05,10.0,NNW,6.9,-,N/A,,Overcast,340,2013-09-16 15:35:00
11:55 AM,64.4,48.2,56,30.05,10.0,NW,8.1,-,N/A,,Mostly Cloudy,320,2013-09-16 15:55:00
12:15 PM,62.6,48.2,59,30.05,10.0,NW,4.6,-,N/A,,Mostly Cloudy,320,2013-09-16 16:15:00
12:35 PM,-9999,-9999,N/A,30.04,10.0,North,15.0,20.7,N/A,,Mostly Cloudy,350,2013-09-16 16:35:00
12:55 PM,64.4,48.2,56,30.05,10.0,NNW,11.5,23.0,N/A,,Mostly Cloudy,330,2013-09-16 16:55:00
1:15 PM,64.4,48.2,56,30.05,10.0,North,11.5,19.6,N/A,,Scattered Clouds,350,2013-09-16 17:15:00
1:35 PM,64.4,48.2,56,30.05,10.0,NNE,12.7,17.3,N/A,,Mostly Cloudy,20,2013-09-16 17:35:00
1:55 PM,64.4,48.2,56,30.05,10.0,NNW,12.7,19.6,N/A,,Mostly Cloudy,330,2013-09-16 17:55:00
2:15 PM,64.4,46.4,52,30.05,10.0,North,12.7,19.6,N/A,,Mostly Cloudy,350,2013-09-16 18:15:00
2:35 PM,64.4,48.2,56,30.06,10.0,North,16.1,20.7,N/A,,Overcast,350,2013-09-16 18:35:00
2:55 PM,-9999,-9999,N/A,30.06,10.0,North,16.1,24.2,N/A,,Overcast,360,2013-09-16 18:55:00
3:15 PM,-9999,-9999,N/A,30.06,10.0,NNW,12.7,18.4,N/A,,Mostly Cloudy,330,2013-09-16 19:15:00
3:35 PM,-9999,-9999,N/A,30.06,10.0,North,12.7,21.9,N/A,,Mostly Cloudy,350,2013-09-16 19:35:00
3:55 PM,-9999,-9999,N/A,30.06,10.0,North,18.4,23.0,N/A,,Mostly Cloudy,350,2013-09-16 19:55:00
4:15 PM,-9999,-9999,N/A,30.07,10.0,North,16.1,-,N/A,,Mostly Cloudy,350,2013-09-16 20:15:00
4:35 PM,-9999,-9999,N/A,30.08,10.0,North,17.3,-,N/A,,Scattered Clouds,350,2013-09-16 20:35:00
4:55 PM,-9999,-9999,N/A,30.09,10.0,NNW,13.8,20.7,N/A,,Partly Cloudy,340,2013-09-16 20:55:00
5:15 PM,-9999,-9999,N/A,30.10,10.0,NNW,12.7,18.4,N/A,,Partly Cloudy,340,2013-09-16 21:15:00
5:35 PM,57.2,44.6,63,30.11,10.0,North,10.4,16.1,N/A,,Clear,350,2013-09-16 21:35:00
5:55 PM,-9999,-9999,N/A,30.11,10.0,North,12.7,20.7,N/A,,Clear,350,2013-09-16 21:55:00
6:15 PM,-9999,-9999,N/A,30.12,10.0,North,16.1,-,N/A,,Clear,10,2013-09-16 22:15:00
6:35 PM,55.4,39.2,54,30.13,10.0,North,11.5,-,N/A,,Clear,360,2013-09-16 22:35:00
6:55 PM,53.6,39.2,58,30.14,10.0,North,9.2,-,N/A,,Clear,360,2013-09-16 22:55:00
7:15 PM,51.8,39.2,62,30.15,10.0,North,12.7,-,N/A,,Clear,10,2013-09-16 23:15:00
7:35 PM,51.8,37.4,58,30.17,10.0,North,11.5,-,N/A,,Clear,10,2013-09-16 23:35:00
7:55 PM,51.8,37.4,58,30.19,10.0,North,10.4,-,N/A,,Clear,10,2013-09-16 23:55:00
8:15 PM,48.2,37.4,66,30.20,10.0,North,9.2,-,N/A,,Clear,10,2013-09-17 00:15:00
8:35 PM,48.2,35.6,62,30.21,10.0,North,9.2,-,N/A,,Clear,10,2013-09-17 00:35:00
8:55 PM,48.2,35.6,62,30.21,10.0,North,9.2,-,N/A,,Clear,360,2013-09-17 00:55:00
9:15 PM,48.2,35.6,62,30.22,10.0,North,9.2,-,N/A,,Clear,360,2013-09-17 01:15:00
9:35 PM,46.4,33.8,62,30.23,10.0,North,8.1,-,N/A,,Clear,10,2013-09-17 01:35:00
9:55 PM,46.4,33.8,62,30.24,10.0,North,4.6,-,N/A,,Clear,10,2013-09-17 01:55:00
10:15 PM,46.4,33.8,62,30.24,10.0,North,8.1,-,N/A,,Clear,360,2013-09-17 02:15:00
10:35 PM,46.4,33.8,62,30.25,10.0,North,8.1,-,N/A,,Clear,360,2013-09-17 02:35:00
10:55 PM,44.6,33.8,66,30.26,10.0,North,10.4,-,N/A,,Clear,10,2013-09-17 02:55:00
11:15 PM,44.6,33.8,66,30.27,10.0,North,6.9,-,N/A,,Clear,10,2013-09-17 03:15:00
11:35 PM,44.6,33.8,66,30.28,10.0,North,6.9,-,N/A,,Clear,360,2013-09-17 03:35:00
11:55 PM,42.8,33.8,70,30.28,10.0,NE,3.5,-,N/A,,Clear,40,2013-09-17 03:55:00